Location: Boiro
(42.6475°N, 8.8834°W)
Time: 20:56:32
(UTC+02:00)

UKube-1 - Pass Details

Date: 02 May 2024
Orbit: 584 x 591 km, 98.3° (Epoch: 20 May)

Event Time Altitude Azimuth Distance (km) Brightness Sun altitude
Rises 05:03:34 0° 352° (N) 2,830 ? -22.3°
Reaches altitude 10° 05:06:59 10° 322° (NW) 1,921 ? -21.9°
Enters shadow 05:08:28 12° 301° (WNW) 1,787 ? -21.7°
